Charleston, WV

12:55 PM EST on December 09, 2019 (GMT -0500)
Yeager Airport

Weather History for KCRW - June, 2019

Change the Weather History Date:

Thursday, June 6, 2019

  Actual Average Record
Temperature  
Mean Temperature 74 °F 70 °F  
Max Temperature 83 °F 80 °F 96 °F (1932)
Min Temperature 65 °F 59 °F 39 °F (1945)
Degree Days  
Heating Degree Days 0 1  
Month to date heating degree days 2 6  
Since 1 June heating degree days 2 6  
Since 1 July heating degree days 4146 4471  
Cooling Degree Days 9 5  
Month to date cooling degree days 23 29  
Year to date cooling degree days 219 139  
Since 1 June cooling degree days 23 29  
Growing Degree Days 23 (Base 50)    
Moisture  
Dew Point 66 °F    
Average Humidity 76    
Maximum Humidity 93    
Minimum Humidity 58    
Precipitation  
Precipitation 0.00 in 0.15 in 1.79 in (2002)
Month to date precipitation 0.80 0.93  
Year to date precipitation 23.03 19.07  
Sea Level Pressure  
Sea Level Pressure 29.84 in    
Wind  
Wind Speed 3 mph (WSW)    
Max Wind Speed 13 mph    
Max Gust Speed 16 mph    
Visibility 10 miles    
Events      
T = Trace of Precipitation, MM = Missing Value Source: NWS Daily Summary

Daily Weather History Graph

Daily Weather History Graph

Search for Another Location

Airport or City:

Astronomy

Jun. 06, 2019 Rise Set
Actual Time 6:02 AM EDT 8:47 PM EDT
Civil Twilight 5:31 AM EDT 9:18 PM EDT
Nautical Twilight 4:52 AM EDT 9:58 PM EDT
Astronomical Twilight 4:08 AM EDT 10:42 PM EDT
Moon 9:09 AM EDT (6/6) No Moon Set
Length of Visible Light 15h 47m
Length of Day
14h 44m
Waxing Crescent, 13% of the Moon is Illuminated
Jun 6
Waxing Crescent
Jun 10
First Quarter
Jun 17
Full
Jun 25
Last Quarter
Jul 2
New

Hourly Weather History & Observations

Time (EDT) Temp. Heat Index Dew Point Humidity Pressure Visibility Wind Dir Wind Speed Gust Speed Precip Events Conditions
12:54 AM 71.1 °F - 66.9 °F 87% 29.80 in 10.0 mi SW 5.8 mph - 0.01 in   Mostly Cloudy
1:54 AM 69.1 °F - 64.9 °F 87% 29.80 in 10.0 mi WSW 5.8 mph - N/A   Clear
2:54 AM 68.0 °F - 64.0 °F 87% 29.82 in 10.0 mi WSW 8.1 mph - N/A   Mostly Cloudy
3:54 AM 68.0 °F - 64.0 °F 87% 29.81 in 10.0 mi SW 9.2 mph - N/A   Overcast
4:54 AM 66.9 °F - 64.0 °F 90% 29.81 in 10.0 mi SW 8.1 mph - N/A   Mostly Cloudy
5:54 AM 66.0 °F - 64.0 °F 93% 29.82 in 10.0 mi Calm Calm - N/A   Mostly Cloudy
6:54 AM 66.0 °F - 64.0 °F 93% 29.84 in 10.0 mi Calm Calm - N/A   Mostly Cloudy
7:54 AM 69.1 °F - 64.9 °F 87% 29.85 in 10.0 mi SSW 6.9 mph - N/A   Scattered Clouds
8:47 AM 71.1 °F - 64.9 °F 81% 29.89 in 10.0 mi SW 9.2 mph - N/A   Mostly Cloudy
8:54 AM 70.0 °F - 64.9 °F 84% 29.87 in 10.0 mi SW 9.2 mph - N/A   Mostly Cloudy
9:54 AM 72.0 °F - 66.0 °F 81% 29.87 in 10.0 mi Calm Calm - N/A   Mostly Cloudy
10:54 AM 73.0 °F - 66.0 °F 79% 29.87 in 10.0 mi Variable 3.5 mph - N/A   Mostly Cloudy
11:54 AM 75.9 °F - 64.9 °F 69% 29.88 in 10.0 mi Variable 3.5 mph - N/A   Mostly Cloudy
12:54 PM 77.0 °F - 66.0 °F 69% 29.87 in 10.0 mi SSW 5.8 mph - N/A   Mostly Cloudy
1:54 PM 78.1 °F - 66.9 °F 68% 29.87 in 10.0 mi West 3.5 mph - N/A   Mostly Cloudy
2:34 PM 81.0 °F 83.0 °F 66.0 °F 60% 29.88 in 10.0 mi Calm Calm - N/A   Mostly Cloudy
2:54 PM 82.0 °F 84.5 °F 66.9 °F 60% 29.85 in 10.0 mi WNW 5.8 mph - N/A   Mostly Cloudy
3:54 PM 82.0 °F 84.1 °F 66.0 °F 58% 29.83 in 10.0 mi Calm Calm - N/A   Scattered Clouds
4:54 PM 82.0 °F 84.5 °F 66.9 °F 60% 29.82 in 10.0 mi Variable 3.5 mph - N/A   Scattered Clouds
5:54 PM 82.0 °F 84.1 °F 66.0 °F 58% 29.82 in 10.0 mi NNE 4.6 mph - N/A   Scattered Clouds
6:54 PM 80.1 °F 82.3 °F 66.9 °F 64% 29.82 in 10.0 mi NE 3.5 mph - N/A   Scattered Clouds
7:54 PM 78.1 °F - 68.0 °F 71% 29.83 in 10.0 mi Calm Calm - N/A   Mostly Cloudy
8:54 PM 75.0 °F - 69.1 °F 82% 29.84 in 10.0 mi Calm Calm - N/A   Mostly Cloudy
9:54 PM 73.0 °F - 69.1 °F 87% 29.85 in 10.0 mi Calm Calm - N/A   Mostly Cloudy
10:54 PM 72.0 °F - 69.1 °F 91% 29.86 in 8.0 mi Calm Calm - N/A   Mostly Cloudy
11:54 PM 72.0 °F - 68.0 °F 87% 29.86 in 10.0 mi Calm Calm - N/A   Overcast